Flag for Burkina Faso Weather past 2 weeks in Koudougou, Burkina Faso

Now
77 °F

Sunny.


Feels Like: 79 °F
Forecast: 76 / 96 °F
Wind: 6 mph from West

Location: Ouagadougou Airport

Current Time: Oct 24, 2014 at 7:05:36 AM

Latest Report: Oct 24, 2014 at 6:00 AM


Visibility: 10 mi

Pressure: 29.89 "Hg

Humidity: 79%

Dew point: 70 °F

Location of KoudougouLocation

Historic Weather in Koudougou — Graph

°F

Koudougou temperature yesterday

Maximum temperature yesterday: 102 °F (at 8:00 PM)
Minimum temperature yesterday: 70 °F (at 5:00 AM)
Average temperature yesterday: 86 °F

Past Weeks' High & Low Weather Summary

 TemperatureHumidityPressure
High102 °F (Oct 23, 8:00 PM)94% (Oct 13, 6:00 AM)30.04 "Hg (Oct 13, 6:00 AM)
Low70 °F (Oct 23, 5:00 AM)14% (Oct 22, 3:00 PM)29.80 "Hg (Oct 10, 4:00 PM)
Average86 °F60%29.91 "Hg
* Reported Oct 9 5:00 AM — Oct 24 5:00 AM, Koudougou, Weather by CustomWeather, © 2014

Note: Actual official high and low records may vary slightly from our data, if they occured in-between our weather recording intervals... More about our weather records

Advertising

Koudougou weather history for previous 24 hours

 ConditionsComfort  
Time TempWeatherWind HumidityBarometerVisibility
5:00 AM
Oct 24
79 °FPassing clouds.6 mph74%29.89 "HgN/A
4:00 AM79 °FClear.7 mph74%29.89 "Hg10 mi
3:00 AM79 °FClear.7 mph74%29.89 "Hg10 mi
2:00 AM81 °FClear.8 mph70%29.89 "Hg10 mi
12:00 AM82 °FClear.7 mph58%29.92 "Hg10 mi
11:00 PM
Oct 23
82 °FClear.5 mph51%29.92 "Hg10 mi
10:00 PM82 °FPassing clouds.2 mph55%29.92 "Hg5 mi
9:00 PM86 °FPassing clouds.8 mph43%29.92 "Hg5 mi
8:00 PM102 °FPassing clouds.3 mph26%29.92 "Hg5 mi
7:00 PM88 °FPassing clouds.5 mph35%29.89 "Hg5 mi
6:00 PM90 °FPassing clouds.3 mph33%29.86 "Hg5 mi
5:00 PM93 °FPartly sunny.3 mph30%29.86 "HgN/A
4:00 PM97 °FPartly sunny.5 mph25%29.83 "HgN/A
3:00 PM99 °FBroken clouds.7 mph22%29.86 "HgN/A
2:00 PM97 °FScattered clouds.6 mph25%29.86 "HgN/A
1:00 PM97 °FScattered clouds.6 mph34%29.89 "HgN/A
12:00 PM95 °FPassing clouds.5 mph36%29.92 "HgN/A
11:00 AM91 °FPassing clouds.7 mph44%29.95 "HgN/A
10:00 AM90 °FPassing clouds.12 mph52%29.98 "HgN/A
9:00 AM88 °FPassing clouds.9 mph55%29.98 "HgN/A
8:00 AM82 °FSunny.10 mph62%29.95 "Hg10 mi
7:00 AM77 °FPassing clouds.6 mph69%29.95 "HgN/A
Weather by CustomWeather, © 2014

See weather overviewHow to use our weather pages